Waarnemingen

Advertentie
Mijn weer
Eindhoven, Nederland (6370): temperatuur & dauwpunt: 13.10.2017 12:00:00 - 19.10.2017 12:00:00 (CEST)Eindhoven, Nederland (6370): temperatuur 5cm: 13.10.2017 12:00:00 - 19.10.2017 12:00:00 (CEST)Eindhoven, Nederland (6370): windsnelheid & windstoten: 13.10.2017 12:00:00 - 19.10.2017 12:00:00 (CEST)Eindhoven, Nederland (6370): windrichting: 13.10.2017 12:00:00 - 19.10.2017 12:00:00 (CEST)Eindhoven, Nederland (6370): luchtdruk: 13.10.2017 12:00:00 - 19.10.2017 12:00:00 (CEST)Eindhoven, Nederland (6370): zicht: 13.10.2017 12:00:00 - 19.10.2017 12:00:00 (CEST)Eindhoven, Nederland (6370): neerslag: 13.10.2017 12:00:00 - 19.10.2017 12:00:00 (CEST)
Datum & Tijd tt [°C] td [°C] tt 5cm [°C] ff [km/u] ff [kn] fx [km/u] fx [kn] dd ppp [hPa] vv [km] rr [mm]
19.10.2017 12:00:00 18,5 12,5 19,4 9 5 18 10 OZO 1010,6 10 0,0
19.10.2017 11:00:00 16,5 12,2 16,7 9 5 18 10 ZZO 1011,2 10 0,0
19.10.2017 10:00:00 14,5 11,8 14,1 11 6 14 8 ZZO 1011,5 10 0,0
19.10.2017 09:00:00 12,3 11,0 11,3 9 5 11 6 ZO 1011,0 10 0,0
19.10.2017 08:00:00 11,4 10,8 10,2 9 5 14 8 ZO 1010,9 8 0,0
19.10.2017 07:00:00 11,0 10,8 8,6 5 3 7 4 ZO 1011,0 8 0,0
19.10.2017 06:00:00 11,4 11,3 8,9 4 2 11 6 OZO 1011,3 4,5 0,0
19.10.2017 05:00:00 10,8 10,5 6,9 5 3 7 4 ZO 1011,8 2,1 0,0
19.10.2017 04:00:00 10,4 10,3 8,5 4 2 7 4 - 1012,0 3,2 0,0
19.10.2017 03:00:00 12,3 12,1 9,1 0 0 7 4 N 1012,4 2,0 0,0
19.10.2017 02:00:00 12,7 12,6 10,9 2 1 7 4 - 1012,1 7 0,0
19.10.2017 01:00:00 12,8 12,8 9,0 4 2 7 4 ZZO 1012,3 8 0,0
19.10.2017 00:00:00 12,5 12,4 9,1 4 2 7 4 - 1012,3 8 0,0
18.10.2017 23:00:00 13,2 13,2 10,3 2 1 7 4 - 1012,4 4,6 0,0
18.10.2017 22:00:00 13,1 13,0 9,5 4 2 4 2 - 1012,4 10 0,0
18.10.2017 21:00:00 13,1 13,0 10,1 2 1 4 2 Z 1012,3 10 0,0
18.10.2017 20:00:00 13,8 13,7 10,2 0 0 4 2 N 1012,1 10 0,0
18.10.2017 19:00:00 14,9 13,4 11,9 2 1 4 2 ONO 1011,9 10 0,0
18.10.2017 18:00:00 18,9 14,2 17,9 4 2 11 6 - 1011,9 10 0,0
18.10.2017 17:00:00 20,4 13,3 20,4 8 4 14 8 ZZW 1011,9 10 0,0
18.10.2017 16:00:00 20,8 12,7 22,5 5 3 14 8 ZW 1012,0 10 0,0
18.10.2017 15:00:00 20,7 12,5 22,4 8 4 14 8 ZZW 1012,3 10 0,0
18.10.2017 14:00:00 19,3 11,8 21,6 8 4 14 8 Z 1012,8 10 0,0
18.10.2017 13:00:00 17,9 12,1 20,1 5 3 14 8 Z 1013,1 10 0,0
18.10.2017 12:00:00 16,2 12,0 17,9 9 5 14 8 ZZO 1013,3 10 0,0
18.10.2017 11:00:00 14,2 12,3 14,5 8 4 14 8 ZZO 1013,6 10 0,0
18.10.2017 10:00:00 12,6 12,6 12,9 9 5 14 8 ZZO 1013,8 4,2 0,0
18.10.2017 09:00:00 12,4 11,9 12,3 8 4 14 8 ZO 1013,8 0,8 0,0
18.10.2017 08:00:00 11,8 11,1 10,7 8 4 14 8 OZO 1013,5 6 0,0
18.10.2017 07:00:00 12,2 11,0 11,3 9 5 14 8 O 1014,1 7 0,0
18.10.2017 06:00:00 11,9 10,6 11,2 9 5 18 10 ONO 1014,7 9 0,0
18.10.2017 05:00:00 13,2 11,3 12,9 13 7 22 12 NO 1015,1 10 0,0
18.10.2017 04:00:00 13,1 11,5 12,6 13 7 22 12 NO 1015,4 10 0,0
18.10.2017 03:00:00 12,8 11,7 12,4 15 8 18 10 NNO 1016,0 10 0,0
18.10.2017 02:00:00 11,8 10,8 10,8 4 2 7 4 NO 1015,9 10 0,0
18.10.2017 01:00:00 13,6 11,7 13,5 8 4 7 4 NO 1016,5 10 0,0
18.10.2017 00:00:00 14,3 11,6 13,8 5 3 7 4 O 1017,2 10 0,0
17.10.2017 23:00:00 14,2 11,6 13,4 8 4 11 6 O 1017,7 10 0,0
17.10.2017 22:00:00 13,3 11,9 12,8 5 3 7 4 NNO 1018,2 10 0,0
17.10.2017 21:00:00 13,0 11,8 12,0 2 1 4 2 - 1018,5 10 0,0
17.10.2017 20:00:00 12,0 11,5 9,5 2 1 4 2 - 1018,9 10 0,0
17.10.2017 19:00:00 13,0 11,4 10,6 4 2 7 4 - 1019,1 10 0,0
17.10.2017 18:00:00 15,2 11,9 14,4 0 0 4 2 N 1019,1 10 0,0
17.10.2017 17:00:00 16,2 11,6 16,2 5 3 22 12 NW 1019,7 10 0,0
17.10.2017 16:00:00 16,5 11,2 16,7 8 4 14 8 W 1020,1 10 0,0
17.10.2017 15:00:00 16,8 12,1 16,9 11 6 18 10 WZW 1020,6 10 0,0
17.10.2017 14:00:00 17,0 12,7 17,3 13 7 18 10 W 1021,4 10 0,0
17.10.2017 13:00:00 16,4 11,9 16,8 15 8 22 12 ZW 1021,9 10 0,0
17.10.2017 12:00:00 15,6 12,3 15,7 13 7 18 10 ZW 1022,2 10 0,0
17.10.2017 11:00:00 14,7 13,0 14,4 11 6 18 10 ZZW 1022,0 10 0,0
17.10.2017 10:00:00 13,6 11,8 12,8 8 4 11 6 ZZW 1022,2 10 0,0
17.10.2017 09:00:00 12,5 11,3 11,3 9 5 11 6 ZZW 1022,1 10 0,0
17.10.2017 08:00:00 12,5 11,5 10,4 9 5 14 8 Z 1021,8 10 0,0
17.10.2017 07:00:00 11,8 10,8 9,1 8 4 11 6 ZZW 1021,8 10 0,0
17.10.2017 06:00:00 13,3 12,0 11,5 8 4 11 6 ZW 1021,6 10 0,0
17.10.2017 05:00:00 13,2 12,7 10,9 8 4 7 4 WZW 1021,5 10 0,0
17.10.2017 04:00:00 14,1 13,3 10,7 5 3 11 6 W 1021,3 10 0,0
17.10.2017 03:00:00 13,9 12,4 11,8 8 4 11 6 ZZW 1020,9 10 0,0
17.10.2017 02:00:00 15,7 13,3 13,7 9 5 14 8 ZZW 1020,6 10 0,0
17.10.2017 01:00:00 16,5 13,4 14,9 9 5 14 8 Z 1020,3 10 0,0
17.10.2017 00:00:00 16,9 13,8 15,5 11 6 14 8 Z 1020,3 10 0,0
16.10.2017 23:00:00 16,8 13,9 14,5 11 6 14 8 Z 1020,2 10 0,0
16.10.2017 22:00:00 18,0 14,2 15,5 11 6 18 10 Z 1020,0 10 0,0
16.10.2017 21:00:00 19,5 14,5 17,7 13 7 25 14 Z 1019,7 10 0,0
16.10.2017 20:00:00 19,6 15,3 15,2 9 5 18 10 ZZO 1019,5 10 0,0
16.10.2017 19:00:00 18,9 15,2 15,5 4 2 18 10 - 1019,3 10 0,0
16.10.2017 18:00:00 23,0 15,4 21,7 13 7 25 14 ZZO 1019,0 10 0,0
16.10.2017 17:00:00 24,6 16,2 24,6 15 8 29 16 ZZO 1019,4 10 0,0
16.10.2017 16:00:00 25,3 16,2 26,1 16 9 22 12 Z 1019,8 10 0,0
16.10.2017 15:00:00 25,2 16,3 26,6 15 8 22 12 Z 1020,3 10 0,0
16.10.2017 14:00:00 24,4 16,3 26,1 11 6 22 12 Z 1020,6 10 0,0
16.10.2017 13:00:00 23,0 16,0 24,5 15 8 25 14 Z 1021,3 10 0,0
16.10.2017 12:00:00 21,7 15,4 22,5 16 9 25 14 ZZW 1021,5 10 0,0
16.10.2017 11:00:00 20,3 15,6 20,5 11 6 22 12 Z 1021,4 10 0,0
16.10.2017 10:00:00 18,4 14,8 18,0 11 6 18 10 ZZW 1021,2 10 0,0
16.10.2017 09:00:00 17,0 14,0 15,8 11 6 18 10 Z 1020,7 10 0,0
16.10.2017 08:00:00 16,1 13,7 15,1 13 7 22 12 ZZW 1020,3 10 0,0
16.10.2017 07:00:00 15,9 14,0 15,3 9 5 22 12 Z 1020,1 10 0,0
16.10.2017 06:00:00 16,1 13,6 15,1 13 7 22 12 Z 1020,2 10 0,0
16.10.2017 05:00:00 15,1 13,2 13,8 8 4 11 6 ZZW 1020,8 10 0,0
16.10.2017 04:00:00 14,2 12,8 12,3 8 4 14 8 Z 1020,7 10 0,0
16.10.2017 03:00:00 14,2 12,7 12,5 9 5 14 8 Z 1021,0 10 0,0
16.10.2017 02:00:00 14,9 12,9 13,1 9 5 14 8 Z 1021,2 10 0,0
16.10.2017 01:00:00 14,9 12,9 13,2 11 6 14 8 Z 1021,1 10 0,0
16.10.2017 00:00:00 16,0 12,9 14,2 11 6 18 10 Z 1021,3 10 0,0
15.10.2017 23:00:00 16,3 12,7 13,8 13 7 22 12 Z 1021,2 10 0,0
15.10.2017 22:00:00 16,4 12,5 14,0 11 6 18 10 Z 1021,0 10 0,0
15.10.2017 21:00:00 17,1 12,9 15,1 13 7 18 10 Z 1020,6 10 0,0
15.10.2017 20:00:00 18,8 13,1 16,2 13 7 22 12 Z 1020,5 10 0,0
15.10.2017 19:00:00 18,8 13,5 14,1 9 5 14 8 Z 1020,1 10 0,0
15.10.2017 18:00:00 21,6 13,6 20,5 11 6 22 12 Z 1020,1 10 0,0
15.10.2017 17:00:00 23,5 13,2 23,9 9 5 22 12 Z 1020,4 10 0,0
15.10.2017 16:00:00 23,9 13,7 25,3 11 6 18 10 Z 1020,7 10 0,0
15.10.2017 15:00:00 23,4 13,6 25,2 13 7 22 12 Z 1021,1 10 0,0
15.10.2017 14:00:00 22,4 13,5 24,3 15 8 22 12 ZZO 1021,6 10 0,0
15.10.2017 13:00:00 21,3 14,5 23,0 11 6 18 10 Z 1022,1 10 0,0
15.10.2017 12:00:00 19,0 14,0 20,3 11 6 18 10 Z 1022,6 10 0,0
15.10.2017 11:00:00 16,4 13,2 16,9 13 7 22 12 Z 1023,1 10 0,0
15.10.2017 10:00:00 14,1 12,5 13,5 11 6 18 10 ZZO 1023,4 10 0,0
15.10.2017 09:00:00 11,9 11,5 11,2 11 6 18 10 ZZO 1023,4 10 0,0
15.10.2017 08:00:00 10,3 10,2 7,6 5 3 14 8 ZZO 1023,5 7 0,0
15.10.2017 07:00:00 10,9 10,8 9,9 9 5 14 8 ZZO 1023,6 8 0,0
15.10.2017 06:00:00 10,1 10,0 6,5 4 2 7 4 - 1024,1 2,3 0,0
15.10.2017 05:00:00 11,5 11,5 7,9 2 1 7 4 - 1024,1 0,3 0,0
15.10.2017 04:00:00 12,0 12,0 9,6 4 2 7 4 ZZO 1024,0 2,3 0,0
15.10.2017 03:00:00 11,0 10,9 7,0 5 3 7 4 ZZO 1024,5 2,7 0,0
15.10.2017 02:00:00 11,6 11,6 7,9 2 1 7 4 OZO 1024,7 0,2 0,0
15.10.2017 01:00:00 12,8 12,7 10,6 2 1 11 6 - 1025,0 4,4 0,0
15.10.2017 00:00:00 11,3 11,1 8,6 8 4 7 4 ZO 1025,3 4,3 0,0
14.10.2017 23:00:00 12,6 12,5 9,2 5 3 7 4 ZZO 1025,5 4,7 0,0
14.10.2017 22:00:00 12,8 12,8 9,5 0 0 4 2 N 1026,0 5 0,0
14.10.2017 21:00:00 13,1 12,9 9,9 2 1 4 2 - 1026,0 2,9 0,0
14.10.2017 20:00:00 14,4 14,3 11,1 2 1 4 2 ZZW 1025,9 10 0,0
14.10.2017 19:00:00 16,5 14,6 14,0 0 0 11 6 N 1025,7 10 0,0
14.10.2017 18:00:00 20,0 15,2 19,8 8 4 18 10 W 1025,6 10 0,0
14.10.2017 17:00:00 21,2 15,4 21,1 13 7 29 16 WZW 1025,4 10 0,0
14.10.2017 16:00:00 21,4 14,9 22,5 16 9 29 16 ZZW 1025,4 10 0,0
14.10.2017 15:00:00 20,9 14,9 20,9 13 7 22 12 WZW 1025,8 10 0,0
14.10.2017 14:00:00 20,5 14,5 22,1 16 9 29 16 ZW 1026,2 10 0,0
14.10.2017 13:00:00 20,1 14,6 - 14 8 25 14 ZW 1026,7 22 0,0
14.10.2017 12:00:00 19,2 14,8 - 11 6 18 10 ZW 1026,8 22 0,0
14.10.2017 11:00:00 17,3 14,3 - 11 6 18 10 ZZW 1026,8 20 0,0
14.10.2017 10:00:00 15,2 13,6 15,2 13 7 18 10 ZZW 1026,6 10 0,0
14.10.2017 09:00:00 13,4 13,0 12,7 9 5 14 8 ZZW 1026,3 8 0,0
14.10.2017 08:00:00 12,5 12,2 11,7 9 5 14 8 ZZW 1026,0 6 0,0
14.10.2017 07:00:00 12,3 12,2 11,5 9 5 14 8 ZZW 1025,8 7 0,0
14.10.2017 06:00:00 12,7 12,2 11,5 9 5 14 8 ZZW 1025,6 10 0,0
14.10.2017 05:00:00 13,3 12,7 12,2 9 5 18 10 ZZW 1025,5 10 0,0
14.10.2017 04:00:00 14,2 13,3 13,3 13 7 18 10 ZZW 1025,5 10 0,0
14.10.2017 03:00:00 13,8 13,0 13,0 11 6 18 10 ZZW 1025,6 10 0,0
14.10.2017 02:00:00 14,4 13,4 13,6 13 7 18 10 ZZW 1025,4 10 0,0
14.10.2017 01:00:00 14,8 13,5 13,7 11 6 14 8 ZZW 1025,3 10 0,0
14.10.2017 00:00:00 14,4 13,3 13,1 9 5 14 8 ZZW 1025,2 10 0,0
13.10.2017 23:00:00 14,8 13,4 13,5 9 5 14 8 ZZW 1025,0 10 0,0
13.10.2017 22:00:00 15,5 13,4 14,4 9 5 14 8 ZZW 1025,0 10 0,0
13.10.2017 21:00:00 16,2 13,6 15,3 13 7 18 10 Z 1024,7 10 0,0
13.10.2017 20:00:00 16,6 14,0 15,3 13 7 14 8 Z 1024,6 10 0,0
13.10.2017 19:00:00 17,2 14,1 16,3 9 5 22 12 ZZW 1024,7 10 0,0
13.10.2017 18:00:00 18,4 14,4 18,2 13 7 25 14 ZW 1024,6 10 0,0
13.10.2017 17:00:00 18,9 14,2 18,8 16 9 32 18 ZW 1024,4 10 0,0
13.10.2017 16:00:00 19,9 14,0 20,2 16 9 32 18 WZW 1024,5 10 0,0
13.10.2017 15:00:00 19,8 14,1 19,8 21 11 32 18 ZW 1024,5 10 0,0
13.10.2017 14:00:00 19,5 13,9 21,0 22 12 32 18 ZW 1024,8 10 0,0
13.10.2017 13:00:00 18,8 14,2 19,2 21 11 36 19 ZW 1024,8 10 0,0
13.10.2017 12:00:00 18,4 14,6 18,8 24 13 29 16 ZW 1024,5 10 0,0

tt = temperatuur
td = dauwpunt
tt 5cm = temperatuur 5cm
ff = windsnelheid
fx = windstoten
dd = windrichting
ppp = luchtdruk
vv = zicht
rr = neerslag

Weerstations in de omgeving